Location: Dürabuch
(48.2640°N, 11.2185°E)
Time: 09:35:23
(UTC+00:00)

SL-16 R/B - Pass Details

Date: 23 May 2024
Orbit: 842 x 845 km, 71.0° (Epoch: 15 June)

Event Time Altitude Azimuth Distance (km) Brightness Sun altitude
Rises 01:35:46 0° 327° (NNW) 3,416 5.7 -13.9°
Reaches altitude 10° 01:38:19 10° 322° (NW) 2,477 4.8 -13.7°
Maximum altitude 01:43:41 45° 251° (WSW) 1,139 2.5 -13.2°
Enters shadow 01:49:00 10° 180° (S) 2,451 4.1 -12.7°
